Location: Greenspot (historical)
(34.0858°N, 117.1109°W)
Time: 15:58:51
(UTC+00:00)

Cosmos 1943 - Pass Details

Date: 18 April 2024
Orbit: 832 x 849 km, 71.0° (Epoch: 20 May)

Event Time Altitude Azimuth Distance (km) Brightness Sun altitude
Exits shadow 12:45:06 - 230° (SW) 2,892 5.4 -6.4°
Reaches altitude 10° 12:46:22 10° 235° (SW) 2,465 5.0 -6.1°
Maximum altitude 12:51:23 32° 298° (WNW) 1,423 4.1 -5.1°
Drops below altitude 10° 12:56:26 10° 0° (N) 2,478 5.9 -4.1°
Sets 12:59:09 0° 11° (N) 3,416 6.8 -3.6°
